QPF
0.00 0.00 0.00 0.00 0.00 0.00 0.00 0.00 0.00 0.00 0.00 0.00 0.00 0.00 0.00 0.00 0.00 0.00 0.00 0.00 0.00 0.00 0.00 0.00 0.00 0.00 0.00 0.00 0.00 0.00 0.00 0.00 0.00 0.00 0.00 0.00 0.00 0.00 0.00 0.00 0.00 0.00 0.00 0.00
0.00 0.00 0.00 0.00 0.00 0.00 0.00 0.00 0.00 0.00 0.00 0.00 0.00 0.00 0.00 0.00 0.00 0.00 0.00 0.00 0.00 0.00 0.00 0.00 0.00 0.00 0.00 0.00 0.00 0.00 0.00 0.00 0.00 0.00 0.00 0.00 0.00 0.00 0.00 0.00 0.00 0.00 0.00 0.00
0.00 0.00 0.00 0.00 0.00 0.00 0.00 0.00 0.00 0.00 0.00 0.00 0.00 0.00 0.00 0.00 0.00 0.00 0.00 0.00 0.00 0.00 0.00 0.00 0.00 0.00 0.00 0.00 0.00 0.00 0.00 0.00 0.00 0.00 0.00 0.00 0.00 0.00 0.00 0.00 0.00 0.00 0.00 0.00
0.00 0.00 0.00 0.00 0.00 0.00 0.00 0.00 0.00 0.00 0.00 0.00 0.00 0.00 0.00 0.00 0.00 0.00 0.00 0.00 0.00 0.00 0.00 0.00 0.00 0.00 0.00 0.00 0.00 0.00 0.00 0.00 0.00 0.00 0.00 0.00 0.00 0.00 0.00 0.00 0.00 0.00 0.00 0.00
0.00 0.00 0.00 0.00 0.00 0.00 0.00 0.00 0.00 0.00 0.00 0.00 0.00 0.00 0.00 0.00 0.00 0.00 0.00 0.00 0.00 0.00 0.00 0.00 0.00 0.00 0.00 0.00 0.00 0.00 0.00 0.00 0.00 0.00 0.00 0.00 0.00 0.00 0.00 0.00 0.00 0.00 0.00 0.00
0.00 0.00 0.00 0.00 0.00 0.00 0.00 0.00 0.00 0.00 0.00 0.00 0.00 0.00 0.00 0.00 0.00 0.00 0.00 0.00 0.00 0.00 0.00 0.00 0.00 0.00 0.00 0.00 0.00 0.00 0.00 0.00 0.00 0.00 0.00 0.00 0.00 0.00 0.00 0.00 0.00 0.00 0.00 0.00
0.00 0.00 0.00 0.00 0.00 0.00 0.00 0.00 0.00 0.00 0.00 0.00 0.00 0.00 0.00 0.00 0.00 0.00 0.00 0.00 0.00 0.00 0.00 0.00 0.00 0.00 0.00 0.00 0.00 0.00 0.00 0.00 0.00 0.00 0.00 0.00 0.00 0.00 0.00 0.00 0.00 0.00 0.00 0.00
0.00 0.00 0.00 0.00 0.00 0.00 0.00 0.00 0.00 0.00 0.00 0.00 0.00 0.00 0.00 0.00 0.00 0.00 0.00 0.00 0.00 0.00 0.00 0.00 0.00 0.00 0.00 0.00 0.00 0.00 0.00 0.00 0.00 0.00 0.00 0.00 0.00 0.00 0.00 0.00 0.00 0.00 0.00 0.00
0.00 0.00 0.00 0.00 0.00 0.00 0.00 0.00 0.00 0.00 0.00 0.00 0.00 0.00 0.00 0.00 0.00 0.00 0.00 0.00 0.00 0.00 0.00 0.00 0.00 0.00 0.00 0.00 0.00 0.00 0.00 0.00 0.00 0.00 0.00 0.00 0.00 0.00 0.00 0.00 0.00 0.00 0.00 0.00
0.00 0.00 0.00 0.00 0.00 0.00 0.00 0.00 0.00 0.00 0.00 0.00 0.00 0.00 0.00 0.00 0.00 0.00 0.00 0.00 0.00 0.00 0.00 0.00 0.00 0.00 0.00 0.00 0.00 0.00 0.00 0.00 0.00 0.00 0.00 0.00 0.00 0.00 0.00 0.00 0.00 0.00 0.00 0.00
0.00 0.00 0.00 0.00 0.00 0.00 0.00 0.00 0.00 0.00 0.00 0.00 0.00 0.00 0.00 0.00 0.00 0.00 0.00 0.00 0.00 0.00 0.00 0.00 0.00 0.00 0.00 0.00 0.00 0.00 0.00 0.00 0.00 0.00 0.00 0.00 0.00 0.00 0.00 0.00 0.00 0.00 0.00 0.00
0.00 0.00 0.00 0.00 0.00 0.00 0.00 0.00 0.00 0.00 0.00 0.00 0.00 0.00 0.00 0.00 0.00 0.00 0.00 0.00 0.00 0.00 0.00 0.00 0.00 0.00 0.00 0.00 0.00 0.00 0.00 0.00 0.00 0.00 0.00 0.00 0.00 0.00 0.00 0.00 0.00 0.00 0.00 0.00
0.00 0.00 0.00 0.00 0.00 0.00 0.00 0.00 0.00 0.00 0.00 0.00 0.00 0.00 0.00 0.00 0.00 0.00 0.00 0.00 0.00 0.00 0.00 0.00 0.00 0.00 0.00 0.00 0.00 0.00 0.00 0.00 0.00 0.00 0.00 0.00 0.00 0.00 0.00 0.00 0.00 0.00 0.00 0.00
0.00 0.00 0.00 0.00 0.00 0.00 0.00 0.00 0.00 0.00 0.00 0.00 0.00 0.00 0.00 0.00 0.00 0.00 0.00 0.00 0.00 0.00 0.00 0.00 0.00 0.00 0.00 0.00 0.00 0.00 0.00 0.00 0.00 0.00 0.00 0.00 0.00 0.00 0.00 0.00 0.00 0.00 0.00 0.00
0.00 0.00 0.00 0.00 0.00 0.00 0.00 0.00 0.00 0.00 0.00 0.00 0.00 0.00 0.00 0.00 0.00 0.00 0.00 0.00 0.00 0.00 0.00 0.00 0.00 0.00 0.00 0.00 0.00 0.00 0.00 0.00 0.00 0.00 0.00 0.00 0.00 0.00 0.00 0.00 0.00 0.00 0.00 0.00
0.00 0.00 0.00 0.00 0.00 0.00 0.00 0.00 0.00 0.00 0.00 0.00 0.00 0.00 0.00 0.00 0.00 0.00 0.00 0.00 0.00 0.00 0.00 0.00 0.00 0.00 0.00 0.00 0.00 0.00 0.00 0.00 0.00 0.00 0.00 0.00 0.00 0.00 0.00 0.00 0.00 0.00 0.00 0.00
0.00 0.00 0.00 0.00 0.00 0.00 0.00 0.00 0.00 0.00 0.00 0.00 0.00 0.00 0.00 0.00 0.00 0.00 0.00 0.00 0.00 0.00 0.00 0.00 0.00 0.00 0.00 0.00 0.00 0.00 0.00 0.00 0.00 0.00 0.00 0.00 0.00 0.00 0.00 0.00 0.00 0.00 0.00 0.00
0.00 0.00 0.00 0.00 0.00 0.00 0.00 0.00 0.00 0.00 0.00 0.00 0.00 0.00 0.00 0.00 0.00 0.00 0.00 0.00 0.00 0.00 0.00 0.00 0.00 0.00 0.00 0.00 0.00 0.00 0.00 0.00 0.00 0.00 0.00 0.00 0.00 0.00 0.00 0.00 0.00 0.00 0.00 0.00
0.00 0.00 0.00 0.00 0.00 0.00 0.00 0.00 0.00 0.00 0.00 0.00 0.00 0.00 0.00 0.00 0.00 0.00 0.00 0.00 0.00 0.00 0.00 0.00 0.00 0.00 0.00 0.00 0.00 0.00 0.00 0.00 0.00 0.00 0.00 0.00 0.00 0.00 0.00 0.00 0.00 0.00 0.00 0.00
0.00 0.00 0.00 0.00 0.00 0.00 0.00 0.00 0.00 0.00 0.00 0.00 0.00 0.00 0.00 0.00 0.00 0.00 0.00 0.00 0.00 0.00 0.00 0.00 0.00 0.00 0.00 0.00 0.00 0.00 0.00 0.00 0.00 0.00 0.00 0.00 0.00 0.00 0.00 0.00 0.00 0.00 0.00 0.00
0.00 0.00 0.00 0.00 0.00 0.00 0.00 0.00 0.00 0.00 0.00 0.00 0.00 0.00 0.00 0.00 0.00 0.00 0.00 0.00 0.00 0.00 0.00 0.00 0.00 0.00 0.00 0.00 0.00 0.00 0.00 0.00 0.00 0.00 0.00 0.00 0.00 0.00 0.00 0.00 0.00 0.00 0.00 0.00
0.00 0.00 0.00 0.00 0.00 0.00 0.00 0.00 0.00 0.00 0.00 0.00 0.00 0.00 0.00 0.00 0.00 0.00 0.00 0.00 0.00 0.00 0.00 0.00 0.00 0.00 0.00 0.00 0.00 0.00 0.00 0.00 0.00 0.00 0.00 0.00 0.00 0.00 0.00 0.00 0.00 0.00 0.00 0.00
0.00 0.00 0.00 0.00 0.00 0.00 0.00 0.00 0.00 0.00 0.00 0.00 0.00 0.00 0.00 0.00 0.00 0.00 0.00 0.00 0.00 0.00 0.00 0.00 0.00 0.00 0.00 0.00 0.00 0.00 0.00 0.00 0.00 0.00 0.00 0.00 0.00 0.00 0.00 0.00 0.00 0.00 0.00 0.00
0.00 0.00 0.00 0.00 0.00 0.00 0.00 0.00 0.00 0.00 0.00 0.00 0.00 0.00 0.00 0.00 0.00 0.00 0.00 0.00 0.00 0.00 0.00 0.00 0.00 0.00 0.00 0.00 0.00 0.00 0.00 0.00 0.00 0.00 0.00 0.00 0.00 0.00 0.00 0.00 0.00 0.00 0.00 0.00
0.00 0.00 0.00 0.00 0.00 0.00 0.00 0.00 0.00 0.00 0.00 0.00 0.00 0.00 0.00 0.00 0.00 0.00 0.00 0.00 0.00 0.00 0.00 0.00 0.00 0.00 0.00 0.00 0.00 0.00 0.00 0.00 0.00 0.00 0.00 0.00 0.00 0.00 0.00 0.00 0.00 0.00 0.00 0.00
0.00 0.00 0.00 0.00 0.00 0.00 0.00 0.00 0.00 0.00 0.00 0.00 0.00 0.00 0.00 0.00 0.00 0.00 0.00 0.00 0.00 0.00 0.00 0.00 0.00 0.00 0.00 0.00 0.00 0.00 0.00 0.00 0.00 0.00 0.00 0.00 0.00 0.00 0.00 0.00 0.00 0.00 0.00 0.00
0.00 0.00 0.00 0.00 0.00 0.00 0.00 0.00 0.00 0.00 0.00 0.00 0.00 0.00 0.00 0.00 0.00 0.00 0.00 0.00 0.00 0.00 0.00 0.00 0.00 0.00 0.00 0.00 0.00 0.00 0.00 0.00 0.00 0.00 0.00 0.00 0.00 0.00 0.00 0.00 0.00 0.00 0.00 0.00
MSLP
1008.81 1008.81 1009.01 1009.38 1009.95 1010.68 1011.29 1011.27 1011.62 1011.15 1011.03 1010.40 1010.25 1010.38 1010.63 1011.05 1011.67 1012.45 1013.33 1014.26 1015.16 1016.13 1016.88 1017.26 1017.59 1017.96 1018.11 1018.19 1018.31 1018.29 1018.40 1018.52 1018.48 1018.11 1017.84 1017.55 1017.23 1016.76 1016.34 1015.95 1015.53 1015.04 1014.41 1013.76
1009.15 1009.05 1009.13 1009.44 1009.69 1010.14 1010.62 1010.74 1010.78 1010.74 1010.66 1010.08 1010.22 1010.44 1010.76 1011.08 1011.51 1012.40 1013.30 1014.36 1015.26 1016.16 1016.78 1017.30 1017.75 1018.07 1018.26 1018.44 1018.44 1018.34 1018.56 1018.53 1018.29 1018.13 1017.85 1017.64 1017.27 1016.74 1016.29 1015.99 1015.43 1015.00 1014.41 1013.67
1009.67 1009.49 1009.49 1009.67 1008.97 1009.46 1009.87 1009.93 1010.02 1010.38 1010.03 1010.04 1010.56 1010.88 1011.10 1011.45 1011.78 1012.43 1013.24 1014.25 1015.26 1016.19 1016.88 1017.38 1017.82 1018.06 1018.34 1018.41 1018.43 1018.60 1018.44 1018.26 1018.29 1018.20 1017.97 1017.60 1017.21 1016.84 1016.46 1015.83 1015.41 1014.95 1014.19 1013.61
1010.23 1010.14 1009.81 1008.48 1008.33 1008.54 1009.31 1009.69 1009.81 1009.91 1010.12 1010.43 1010.91 1011.27 1011.60 1012.01 1012.47 1012.85 1013.67 1014.63 1015.46 1016.34 1016.99 1017.54 1017.87 1018.14 1018.36 1018.60 1018.63 1018.42 1018.39 1018.41 1018.33 1018.22 1017.92 1017.60 1017.34 1016.96 1016.36 1015.99 1015.52 1014.74 1014.10 1013.58
1010.46 1010.42 1009.39 1008.54 1008.49 1008.63 1008.73 1010.06 1010.05 1010.27 1010.73 1011.04 1011.36 1011.67 1012.16 1012.45 1012.94 1013.60 1013.90 1014.72 1015.56 1016.32 1017.03 1017.59 1017.96 1018.28 1018.53 1018.68 1018.56 1018.69 1018.86 1018.81 1018.33 1018.14 1017.96 1017.76 1017.23 1016.85 1016.51 1015.88 1015.24 1014.51 1014.02 1013.32
1010.65 1010.34 1009.33 1008.17 1007.87 1007.87 1008.34 1009.91 1010.21 1010.45 1011.12 1011.48 1011.88 1012.76 1013.04 1013.11 1013.74 1014.17 1014.64 1015.23 1015.99 1016.77 1017.16 1017.59 1018.02 1018.29 1018.56 1018.70 1018.90 1019.03 1019.00 1018.66 1018.31 1018.18 1017.92 1017.52 1017.43 1016.90 1016.21 1015.71 1015.04 1014.34 1013.54 1013.04
1010.85 1010.51 1009.32 1008.30 1008.14 1008.24 1009.53 1010.43 1010.44 1010.87 1011.34 1011.81 1012.41 1012.77 1013.27 1013.84 1014.43 1014.97 1015.45 1015.95 1016.52 1016.93 1017.42 1017.82 1018.12 1018.25 1018.52 1018.91 1019.10 1018.97 1018.82 1018.53 1018.29 1017.88 1017.86 1017.59 1017.04 1016.53 1015.87 1015.28 1014.77 1014.12 1013.19 1012.45
1011.11 1010.71 1009.59 1008.51 1008.70 1009.09 1009.83 1010.39 1010.73 1011.27 1011.63 1012.03 1012.35 1012.81 1013.57 1014.24 1014.88 1015.43 1015.93 1016.44 1016.80 1017.24 1017.67 1017.85 1018.07 1018.45 1018.90 1019.13 1019.03 1018.79 1018.62 1018.49 1018.19 1018.00 1017.67 1017.12 1016.72 1016.04 1015.57 1015.08 1014.44 1013.62 1012.80 1012.03
1009.93 1009.66 1009.11 1009.03 1009.08 1009.36 1009.85 1010.53 1011.25 1011.53 1011.83 1012.08 1012.46 1012.89 1013.42 1014.17 1014.93 1015.56 1016.09 1016.54 1016.92 1017.36 1017.77 1018.10 1018.42 1018.62 1019.02 1018.96 1018.78 1018.67 1018.54 1018.32 1018.12 1017.69 1017.27 1016.75 1016.30 1015.73 1015.24 1014.74 1014.16 1013.37 1012.61 1011.67
1010.04 1009.97 1009.80 1009.70 1009.86 1010.09 1010.46 1010.98 1011.43 1011.74 1011.99 1012.25 1012.65 1013.09 1013.63 1014.33 1015.09 1015.73 1016.19 1016.65 1017.07 1017.55 1018.00 1018.23 1018.43 1018.72 1018.84 1018.69 1018.51 1018.51 1018.49 1018.23 1017.83 1017.42 1016.79 1016.21 1015.88 1015.46 1014.96 1014.39 1013.80 1013.00 1012.02 1011.06
1010.33 1010.47 1010.46 1010.48 1010.39 1010.56 1011.10 1011.53 1011.94 1012.25 1012.49 1012.76 1013.08 1013.50 1014.00 1014.62 1015.21 1015.71 1016.20 1016.68 1017.09 1017.48 1017.78 1018.20 1018.47 1018.48 1018.46 1018.41 1018.47 1018.50 1018.28 1017.91 1017.38 1016.87 1016.29 1015.73 1015.41 1015.05 1014.48 1013.98 1013.37 1012.18 1011.39 1010.79
1009.59 1009.45 1009.98 1010.38 1010.77 1011.06 1011.64 1012.20 1012.73 1013.03 1013.29 1013.50 1013.69 1014.00 1014.38 1014.89 1015.28 1015.73 1016.26 1016.71 1017.08 1017.47 1017.86 1018.10 1018.24 1018.38 1018.40 1018.32 1018.39 1018.34 1018.00 1017.31 1016.88 1016.33 1015.84 1015.45 1014.89 1014.14 1014.05 1013.27 1012.48 1011.72 1011.09 1010.44
1009.67 1009.95 1010.44 1010.82 1011.43 1011.85 1012.54 1013.20 1013.59 1013.82 1014.04 1014.21 1014.39 1014.62 1014.84 1015.22 1015.56 1015.96 1016.33 1016.73 1017.17 1017.59 1017.94 1018.16 1018.24 1018.34 1018.35 1018.26 1018.14 1017.88 1017.46 1016.91 1016.33 1015.90 1015.62 1015.19 1014.58 1013.97 1012.89 1012.07 1011.82 1011.17 1010.63 1009.98
1010.05 1010.55 1011.65 1011.95 1012.50 1012.97 1013.42 1013.88 1014.06 1014.32 1014.55 1014.71 1014.89 1014.91 1015.03 1015.33 1015.81 1016.21 1016.48 1016.92 1017.38 1017.74 1018.00 1018.24 1018.36 1018.36 1018.17 1017.92 1017.69 1017.40 1016.95 1016.49 1016.03 1015.68 1015.28 1014.68 1014.15 1013.49 1012.91 1012.11 1011.07 1010.44 1010.14 1009.67
1010.84 1011.07 1011.65 1012.41 1013.07 1013.51 1013.81 1014.18 1014.38 1014.50 1014.56 1014.61 1014.72 1014.97 1015.24 1015.55 1015.97 1016.39 1016.80 1017.14 1017.47 1017.80 1018.02 1018.19 1018.32 1018.06 1017.67 1017.40 1017.09 1016.86 1016.55 1016.13 1015.69 1015.18 1014.68 1014.20 1013.69 1013.14 1012.57 1011.93 1011.12 1010.38 1009.68 1009.09
1011.81 1012.26 1012.67 1013.18 1013.69 1013.94 1014.24 1014.39 1014.50 1014.43 1014.46 1014.67 1014.94 1015.16 1015.38 1015.74 1016.16 1016.60 1016.94 1017.26 1017.73 1018.03 1018.16 1018.19 1017.88 1017.39 1017.10 1016.88 1016.73 1016.52 1016.24 1015.69 1015.19 1014.65 1014.18 1013.73 1013.36 1012.75 1012.15 1011.55 1010.82 1010.14 1009.46 1008.76
1011.92 1012.84 1012.87 1013.22 1013.86 1013.76 1013.91 1014.05 1014.22 1014.38 1014.59 1014.99 1015.14 1015.35 1015.65 1016.05 1016.52 1016.92 1017.26 1017.53 1017.83 1017.96 1017.84 1017.58 1017.20 1016.92 1016.77 1016.64 1016.48 1016.10 1015.72 1015.25 1014.87 1014.34 1013.84 1013.32 1012.90 1012.34 1011.77 1011.12 1010.43 1009.82 1009.23 1008.61
1010.95 1011.38 1011.99 1012.41 1012.99 1013.50 1013.79 1013.90 1014.05 1014.21 1014.50 1014.61 1014.92 1015.32 1015.79 1016.27 1016.66 1017.00 1017.29 1017.52 1017.67 1017.53 1017.28 1017.04 1016.86 1016.70 1016.51 1016.27 1015.92 1015.55 1015.16 1014.77 1014.35 1013.90 1013.37 1012.89 1012.42 1011.76 1011.28 1010.73 1010.11 1009.55 1008.90 1008.31
1011.09 1011.52 1012.02 1012.45 1012.84 1013.21 1013.48 1013.72 1013.85 1014.00 1014.28 1014.64 1015.05 1015.42 1015.78 1016.22 1016.59 1016.90 1017.15 1017.29 1017.26 1017.20 1016.83 1016.65 1016.51 1016.29 1016.17 1015.80 1015.30 1014.96 1014.67 1014.28 1013.88 1013.47 1013.01 1012.43 1011.94 1011.40 1010.91 1010.44 1009.87 1009.41 1008.85 1008.14
1011.46 1011.87 1012.26 1012.54 1012.75 1012.96 1013.34 1013.56 1013.80 1014.08 1014.33 1014.70 1015.07 1015.54 1015.99 1016.33 1016.60 1016.84 1017.01 1017.12 1016.97 1016.91 1016.62 1016.43 1016.10 1015.92 1015.69 1015.31 1014.86 1014.49 1014.13 1013.83 1013.45 1013.01 1012.58 1011.97 1011.54 1011.11 1010.58 1010.17 1009.68 1009.17 1008.63 1007.96
1011.58 1011.85 1012.11 1012.42 1012.78 1013.03 1013.30 1013.58 1013.84 1014.12 1014.39 1014.76 1015.16 1015.53 1015.89 1016.17 1016.28 1016.49 1016.86 1017.03 1016.54 1016.34 1016.06 1015.79 1015.72 1015.49 1015.21 1014.80 1014.22 1013.80 1013.66 1013.40 1013.02 1012.62 1012.17 1011.74 1011.34 1010.91 1010.37 1009.90 1009.49 1009.02 1008.37 1007.75
1011.56 1011.93 1012.22 1012.54 1012.91 1013.17 1013.34 1013.53 1013.79 1014.09 1014.40 1014.77 1015.16 1015.46 1015.78 1016.12 1016.39 1016.58 1016.47 1016.53 1016.14 1015.92 1015.71 1015.49 1015.30 1015.10 1014.62 1013.98 1013.68 1013.46 1013.29 1012.99 1012.62 1012.26 1011.86 1011.48 1011.06 1010.55 1010.07 1009.62 1009.12 1008.58 1007.99 1007.42
1011.59 1011.95 1012.35 1012.78 1013.07 1013.23 1013.37 1013.52 1013.74 1014.02 1014.31 1014.62 1014.91 1015.30 1015.68 1015.98 1016.22 1016.35 1016.16 1015.90 1015.88 1015.73 1015.32 1015.09 1014.88 1014.40 1013.98 1013.51 1013.36 1013.15 1012.90 1012.56 1012.22 1011.88 1011.50 1011.08 1010.59 1010.11 1009.57 1009.07 1008.63 1008.16 1007.65 1007.05
1012.01 1012.33 1012.57 1012.74 1012.90 1013.20 1013.57 1013.70 1013.84 1014.15 1014.47 1014.74 1015.01 1015.28 1015.63 1015.93 1016.00 1015.85 1015.97 1015.87 1015.73 1015.51 1015.07 1014.83 1014.48 1013.92 1013.43 1013.26 1013.07 1012.77 1012.46 1012.11 1011.80 1011.43 1010.95 1010.36 1009.86 1009.44 1009.02 1008.62 1008.19 1007.73 1007.16 1006.49
1011.93 1012.35 1012.68 1012.92 1013.30 1013.62 1013.79 1014.09 1014.52 1014.68 1014.79 1015.03 1015.26 1015.49 1015.72 1015.96 1016.18 1016.07 1016.01 1015.82 1015.50 1015.14 1014.86 1014.47 1014.04 1013.61 1013.34 1012.98 1012.58 1012.22 1011.89 1011.56 1011.22 1010.67 1010.07 1009.74 1009.29 1008.87 1008.44 1008.04 1007.64 1007.19 1006.54 1006.07
1012.46 1012.78 1013.08 1013.31 1013.57 1013.75 1014.02 1014.31 1014.72 1015.03 1015.17 1015.42 1015.57 1015.73 1015.88 1015.99 1016.06 1015.90 1015.77 1015.59 1015.35 1014.94 1014.60 1014.24 1013.84 1013.31 1012.87 1012.53 1012.16 1011.73 1011.28 1010.86 1010.46 1010.05 1009.54 1009.07 1008.66 1008.25 1007.85 1007.56 1007.16 1006.70 1006.20 1005.72
1013.07 1013.30 1013.56 1013.98 1014.17 1014.26 1014.48 1014.75 1015.06 1015.51 1015.67 1015.84 1015.99 1016.11 1016.19 1016.13 1015.94 1015.60 1015.45 1015.41 1015.11 1014.67 1014.26 1013.82 1013.39 1012.94 1012.45 1011.98 1011.51 1011.10 1010.70 1010.31 1009.92 1009.45 1008.91 1008.51 1008.18 1007.80 1007.50 1007.14 1006.75 1006.29 1005.83 1005.33
Thickness
5600 5608 5612 5614 5615 5606 5607 5616 5608 5622 5611 5629 5634 5636 5635 5633 5629 5622 5612 5603 5596 5586 5576 5570 5563 5556 5550 5544 5537 5531 5524 5515 5507 5502 5496 5491 5484 5478 5470 5461 5451 5441 5431 5421
5599 5605 5612 5613 5614 5604 5610 5609 5616 5614 5617 5627 5628 5628 5627 5627 5625 5618 5608 5597 5589 5578 5569 5560 5552 5546 5539 5531 5524 5517 5508 5501 5496 5488 5481 5474 5466 5459 5450 5439 5429 5416 5405 5396
5594 5599 5603 5601 5610 5606 5610 5614 5614 5608 5621 5624 5619 5617 5620 5620 5617 5613 5604 5591 5580 5569 5559 5549 5541 5534 5526 5518 5510 5502 5496 5489 5481 5472 5463 5454 5446 5437 5427 5418 5406 5394 5384 5373
5578 5588 5579 5617 5617 5616 5613 5613 5617 5617 5618 5616 5611 5610 5609 5607 5604 5600 5594 5579 5569 5556 5546 5537 5529 5521 5512 5504 5496 5489 5480 5471 5463 5454 5445 5436 5425 5413 5404 5394 5382 5374 5366 5356
5583 5578 5599 5613 5609 5611 5617 5608 5612 5610 5607 5606 5604 5602 5601 5594 5589 5583 5579 5567 5556 5546 5536 5525 5516 5507 5499 5489 5480 5470 5461 5452 5446 5437 5427 5416 5405 5392 5381 5374 5366 5360 5350 5341
5550 5576 5589 5614 5619 5621 5621 5602 5604 5604 5599 5598 5595 5586 5584 5585 5573 5567 5560 5552 5542 5530 5521 5513 5503 5493 5483 5474 5464 5455 5446 5438 5431 5420 5407 5395 5382 5372 5363 5355 5350 5343 5339 5324
5581 5580 5589 5608 5612 5614 5596 5603 5596 5594 5592 5590 5584 5581 5576 5564 5559 5552 5544 5536 5526 5518 5508 5498 5488 5481 5471 5460 5450 5441 5432 5423 5411 5400 5387 5374 5365 5355 5350 5343 5335 5327 5324 5314
5560 5573 5583 5602 5603 5600 5594 5586 5586 5583 5582 5580 5578 5575 5563 5553 5546 5538 5529 5520 5513 5502 5493 5485 5477 5466 5456 5446 5435 5426 5416 5404 5394 5381 5368 5360 5350 5344 5336 5328 5321 5314 5308 5303
5582 5585 5589 5591 5596 5586 5585 5581 5578 5579 5577 5577 5573 5568 5560 5547 5535 5526 5516 5507 5498 5488 5478 5468 5458 5449 5438 5430 5421 5410 5398 5388 5377 5367 5356 5345 5337 5332 5325 5315 5305 5299 5292 5287
5581 5580 5582 5581 5579 5580 5580 5577 5573 5572 5570 5567 5563 5555 5548 5534 5522 5511 5501 5491 5481 5471 5462 5454 5444 5433 5425 5416 5406 5394 5382 5371 5362 5352 5346 5337 5326 5316 5309 5302 5295 5286 5280 5276
5567 5566 5571 5573 5575 5572 5568 5564 5561 5557 5554 5550 5545 5539 5530 5516 5506 5496 5486 5476 5466 5458 5449 5438 5426 5418 5410 5400 5389 5378 5368 5358 5349 5341 5333 5328 5319 5307 5301 5293 5281 5275 5267 5257
5570 5571 5569 5565 5565 5562 5557 5551 5539 5541 5537 5528 5523 5517 5511 5500 5492 5482 5471 5462 5452 5443 5433 5423 5412 5402 5393 5383 5373 5363 5354 5348 5337 5331 5323 5316 5310 5308 5295 5288 5281 5269 5257 5249
5565 5557 5553 5548 5543 5545 5536 5525 5520 5515 5511 5508 5504 5498 5495 5485 5476 5469 5457 5447 5437 5427 5417 5405 5395 5385 5377 5368 5358 5349 5339 5333 5326 5318 5310 5303 5297 5292 5295 5293 5276 5264 5250 5243
5545 5543 5539 5537 5532 5518 5514 5510 5508 5503 5499 5495 5489 5485 5479 5470 5460 5449 5441 5431 5420 5410 5400 5389 5378 5369 5362 5355 5345 5334 5324 5318 5311 5304 5298 5293 5287 5283 5277 5271 5269 5261 5246 5236
5526 5524 5525 5513 5507 5505 5501 5495 5492 5489 5485 5482 5476 5469 5462 5453 5442 5433 5423 5414 5404 5393 5384 5374 5364 5356 5349 5340 5330 5320 5312 5305 5300 5295 5290 5284 5278 5271 5264 5258 5252 5244 5238 5232
5504 5502 5496 5496 5495 5486 5485 5477 5481 5476 5473 5468 5460 5451 5443 5435 5426 5417 5408 5398 5388 5378 5369 5359 5350 5344 5335 5325 5316 5308 5300 5294 5290 5286 5280 5273 5265 5260 5254 5247 5240 5232 5227 5223
5500 5497 5481 5482 5472 5483 5481 5474 5468 5463 5457 5445 5440 5434 5427 5419 5410 5401 5391 5381 5371 5361 5353 5346 5340 5331 5321 5311 5302 5296 5289 5283 5279 5274 5267 5262 5255 5249 5242 5235 5230 5224 5219 5215
5501 5492 5491 5490 5480 5473 5467 5462 5455 5450 5443 5439 5431 5422 5413 5403 5396 5386 5376 5365 5355 5348 5340 5334 5324 5314 5304 5296 5290 5285 5279 5274 5269 5264 5259 5253 5245 5240 5233 5225 5220 5215 5212 5208
5488 5484 5477 5472 5464 5458 5454 5449 5445 5440 5433 5426 5416 5408 5400 5391 5382 5371 5361 5351 5343 5336 5328 5317 5308 5299 5290 5284 5280 5275 5269 5264 5259 5253 5247 5242 5235 5229 5222 5214 5209 5205 5202 5200
5470 5466 5461 5458 5454 5450 5444 5437 5432 5425 5419 5410 5403 5393 5384 5376 5367 5358 5348 5337 5327 5321 5312 5301 5294 5285 5279 5274 5270 5265 5259 5253 5248 5243 5237 5232 5224 5216 5209 5203 5199 5196 5193 5193
5460 5455 5452 5446 5440 5436 5430 5425 5419 5413 5407 5398 5389 5381 5372 5363 5354 5343 5332 5321 5312 5304 5296 5288 5279 5274 5268 5264 5261 5256 5249 5243 5237 5231 5225 5217 5210 5201 5197 5193 5190 5187 5186 5185
5447 5443 5439 5434 5427 5422 5417 5412 5406 5399 5391 5382 5374 5365 5356 5344 5334 5323 5315 5305 5298 5289 5283 5275 5268 5262 5259 5257 5251 5244 5237 5231 5225 5218 5210 5202 5194 5189 5186 5183 5182 5181 5181 5180
5436 5432 5426 5420 5415 5409 5403 5399 5392 5385 5377 5369 5361 5351 5340 5329 5317 5308 5300 5289 5279 5273 5270 5263 5258 5254 5250 5246 5238 5232 5225 5218 5211 5203 5195 5187 5182 5180 5179 5178 5177 5177 5176 5177
5421 5415 5412 5406 5401 5395 5390 5385 5376 5368 5359 5351 5342 5332 5322 5310 5300 5291 5282 5275 5267 5262 5258 5252 5247 5244 5240 5232 5225 5219 5212 5205 5197 5189 5183 5181 5177 5175 5174 5173 5172 5171 5173 5178
5403 5392 5385 5381 5381 5378 5369 5359 5351 5344 5339 5331 5322 5312 5302 5292 5282 5272 5263 5258 5255 5251 5246 5241 5237 5232 5225 5218 5212 5206 5198 5191 5183 5180 5179 5175 5173 5171 5170 5168 5168 5169 5173 5177
5390 5386 5379 5373 5367 5361 5354 5346 5338 5329 5321 5313 5303 5292 5282 5272 5264 5259 5253 5248 5243 5239 5234 5229 5223 5218 5213 5206 5198 5192 5186 5180 5176 5173 5171 5170 5168 5167 5166 5164 5165 5167 5171 5177
5363 5364 5353 5352 5347 5341 5334 5328 5319 5308 5300 5290 5280 5270 5262 5256 5251 5249 5243 5236 5231 5227 5222 5217 5210 5204 5198 5191 5185 5180 5175 5172 5168 5167 5166 5165 5164 5163 5161 5161 5162 5166 5172 5179